When you browse on this site, cookies collect data to enhance your experience and personalize the content and advertising you see.
Visit our Privacy Policy to learn more. By continuing to use the site, you agree to this use of cookies and data.
  • In Portugal
  • List of Countries
  • For 7 days
  • Water Temperature
  • Weather Map
  • Weather Widgets
  • user-avatar
    Login

    Hourly Weather Kirovo

    Today, 4 June, Thursday

    Time Temperature Precipitation Wind Pressure Humidity
    00:00 +11°C° 0 mm 1 mps 735 mmHg 85%
    01:00 +10°C° 0 mm 1 mps 734 mmHg 86%
    02:00 +10°C° 0 mm 1 mps 734 mmHg 87%
    03:00 +9°C° 0 mm 1 mps 734 mmHg 88%
    04:00 +9°C° 0 mm 0 mps 734 mmHg 86%
    05:00 +10°C° 0 mm 0 mps 733 mmHg 84%
    06:00 +11°C° 0 mm 0 mps 733 mmHg 84%
    07:00 +13°C° 0.1 mm 1 mps 733 mmHg 79%
    08:00 +14°C° 0.1 mm 1 mps 732 mmHg 75%
    09:00 +15°C° 0.1 mm 1 mps 732 mmHg 70%
    10:00 +16°C° 0.2 mm 1 mps 732 mmHg 66%
    11:00 +17°C° 0.2 mm 2 mps 731 mmHg 61%
    12:00 +18°C° 0 mm 3 mps 732 mmHg 56%
    13:00 +18°C° 0.1 mm 2 mps 731 mmHg 58%
    14:00 +17°C° 0.1 mm 2 mps 731 mmHg 59%
    15:00 +17°C° 0.1 mm 2 mps 731 mmHg 61%
    16:00 +16°C° 0.4 mm 2 mps 731 mmHg 67%
    17:00 +16°C° 0.4 mm 2 mps 731 mmHg 73%
    18:00 +15°C° 0 mm 1 mps 731 mmHg 75%
    19:00 +14°C° 0.2 mm 1 mps 731 mmHg 78%
    20:00 +12°C° 0.2 mm 1 mps 731 mmHg 82%
    21:00 +11°C° 0.2 mm 1 mps 731 mmHg 85%
    22:00 +10°C° 0 mm 1 mps 731 mmHg 86%
    23:00 +9°C° 0 mm 0 mps 731 mmHg 87%

    Tomorrow, 5 June, Friday

    Time Temperature Precipitation Wind Pressure Humidity
    00:00 +8°C° 0 mm 0 mps 731 mmHg 88%
    01:00 +9°C° 0 mm 1 mps 730 mmHg 89%
    02:00 +9°C° 0 mm 1 mps 730 mmHg 90%
    03:00 +8°C° 0 mm 1 mps 730 mmHg 91%
    04:00 +9°C° 0.3 mm 1 mps 729 mmHg 91%
    05:00 +9°C° 0.3 mm 1 mps 729 mmHg 92%
    06:00 +10°C° 0.3 mm 1 mps 729 mmHg 92%
    07:00 +10°C° 0.5 mm 1 mps 729 mmHg 92%
    08:00 +10°C° 0.5 mm 0 mps 728 mmHg 92%
    09:00 +10°C° 0.5 mm 0 mps 727 mmHg 92%
    10:00 +12°C° 0 mm 1 mps 727 mmHg 87%
    11:00 +13°C° 0 mm 1 mps 727 mmHg 82%
    12:00 +14°C° 0 mm 1 mps 727 mmHg 77%
    13:00 +15°C° 0.1 mm 2 mps 726 mmHg 77%
    14:00 +15°C° 0.1 mm 2 mps 726 mmHg 76%
    15:00 +14°C° 0.1 mm 3 mps 725 mmHg 75%
    16:00 +13°C° 0.4 mm 3 mps 726 mmHg 78%
    17:00 +13°C° 0.4 mm 3 mps 727 mmHg 81%
    18:00 +12°C° 0.4 mm 3 mps 727 mmHg 84%
    19:00 +12°C° 1 mm 3 mps 727 mmHg 86%
    20:00 +11°C° 1 mm 4 mps 728 mmHg 89%
    21:00 +10°C° 1 mm 4 mps 728 mmHg 91%
    22:00 +10°C° 0.3 mm 4 mps 729 mmHg 91%
    23:00 +9°C° 0.3 mm 5 mps 729 mmHg 91%

    Day after tomorrow, 6 June, Saturday

    Time Temperature Precipitation Wind Pressure Humidity
    00:00 +8°C° 0.3 mm 5 mps 729 mmHg 91%
    01:00 +8°C° 0.1 mm 6 mps 729 mmHg 90%
    02:00 +8°C° 0.1 mm 7 mps 730 mmHg 90%
    03:00 +8°C° 0.1 mm 7 mps 730 mmHg 89%
    04:00 +6°C° 0.4 mm 8 mps 731 mmHg 89%
    05:00 +6°C° 0.4 mm 8 mps 731 mmHg 89%
    06:00 +6°C° 0.4 mm 8 mps 732 mmHg 90%
    07:00 +6°C° 0.2 mm 8 mps 733 mmHg 87%
    08:00 +7°C° 0.2 mm 8 mps 733 mmHg 84%
    09:00 +9°C° 0.2 mm 8 mps 734 mmHg 82%
    10:00 +9°C° 0.2 mm 8 mps 734 mmHg 80%
    11:00 +10°C° 0.2 mm 7 mps 734 mmHg 78%
    12:00 +10°C° 0.2 mm 6 mps 734 mmHg 77%
    13:00 +11°C° 0.4 mm 6 mps 734 mmHg 75%
    14:00 +13°C° 0.4 mm 6 mps 734 mmHg 73%
    15:00 +13°C° 0.4 mm 6 mps 735 mmHg 71%
    16:00 +13°C° 0.2 mm 5 mps 735 mmHg 72%
    17:00 +13°C° 0.2 mm 5 mps 735 mmHg 74%
    18:00 +12°C° 0.2 mm 4 mps 736 mmHg 75%
    19:00 +11°C° 0.1 mm 4 mps 736 mmHg 77%
    20:00 +11°C° 0.1 mm 4 mps 736 mmHg 78%
    21:00 +10°C° 0.1 mm 4 mps 737 mmHg 79%
    22:00 +9°C° 0.1 mm 3 mps 737 mmHg 81%
    23:00 +9°C° 0.1 mm 3 mps 737 mmHg 83%

    7 June, Sunday

    Time Temperature Precipitation Wind Pressure Humidity
    00:00 +9°C° 0.1 mm 3 mps 737 mmHg 85%
    01:00 +9°C° 0.1 mm 3 mps 737 mmHg 85%
    02:00 +9°C° 0.1 mm 3 mps 737 mmHg 86%
    03:00 +8°C° 0.1 mm 2 mps 737 mmHg 87%
    04:00 +8°C° 0.5 mm 2 mps 738 mmHg 88%
    05:00 +8°C° 0.5 mm 2 mps 738 mmHg 89%
    06:00 +8°C° 0.5 mm 2 mps 738 mmHg 90%
    07:00 +9°C° 0.3 mm 2 mps 738 mmHg 88%
    08:00 +10°C° 0.3 mm 2 mps 738 mmHg 86%
    09:00 +10°C° 0.3 mm 2 mps 738 mmHg 84%
    10:00 +13°C° 0.1 mm 2 mps 738 mmHg 78%
    11:00 +13°C° 0.1 mm 3 mps 738 mmHg 73%
    12:00 +16°C° 0.1 mm 3 mps 738 mmHg 67%
    13:00 +14°C° 0.5 mm 4 mps 738 mmHg 70%
    14:00 +14°C° 0.5 mm 4 mps 737 mmHg 73%
    15:00 +14°C° 0.5 mm 5 mps 737 mmHg 76%
    16:00 +13°C° 0.3 mm 4 mps 737 mmHg 79%
    17:00 +14°C° 0.3 mm 2 mps 737 mmHg 82%
    18:00 +14°C° 0.3 mm 1 mps 737 mmHg 84%
    19:00 +13°C° 0.2 mm 1 mps 737 mmHg 85%
    20:00 +12°C° 0.2 mm 1 mps 737 mmHg 87%
    21:00 +11°C° 0.2 mm 1 mps 737 mmHg 88%
    22:00 +10°C° 0.4 mm 2 mps 737 mmHg 89%
    23:00 +10°C° 0.4 mm 2 mps 738 mmHg 90%

    8 June, Monday

    Time Temperature Precipitation Wind Pressure Humidity
    00:00 +9°C° 0.4 mm 3 mps 738 mmHg 92%
    01:00 +9°C° 0.1 mm 3 mps 738 mmHg 91%
    02:00 +9°C° 0.1 mm 3 mps 738 mmHg 91%
    03:00 +9°C° 0.1 mm 3 mps 738 mmHg 91%
    04:00 +9°C° 0.4 mm 3 mps 738 mmHg 90%
    05:00 +10°C° 0.4 mm 3 mps 738 mmHg 89%
    06:00 +10°C° 0.4 mm 3 mps 739 mmHg 88%
    07:00 +12°C° 0.7 mm 3 mps 739 mmHg 81%
    08:00 +13°C° 0.7 mm 3 mps 739 mmHg 75%
    09:00 +14°C° 0.7 mm 3 mps 739 mmHg 69%
    10:00 +16°C° 0.4 mm 3 mps 739 mmHg 66%
    11:00 +16°C° 0.4 mm 3 mps 738 mmHg 63%
    12:00 +17°C° 0.4 mm 3 mps 738 mmHg 59%
    13:00 +17°C° 0.1 mm 3 mps 738 mmHg 56%
    14:00 +18°C° 0.1 mm 3 mps 738 mmHg 53%
    15:00 +18°C° 0.1 mm 3 mps 737 mmHg 49%
    16:00 +18°C° 0 mm 2 mps 737 mmHg 55%
    17:00 +18°C° 0 mm 2 mps 737 mmHg 60%
    18:00 +19°C° 0 mm 1 mps 737 mmHg 65%
    19:00 +18°C° 0 mm 1 mps 737 mmHg 66%
    20:00 +15°C° 0 mm 2 mps 737 mmHg 67%
    21:00 +13°C° 0 mm 2 mps 737 mmHg 69%
    22:00 +12°C° 0.1 mm 3 mps 737 mmHg 73%
    23:00 +12°C° 0.1 mm 4 mps 736 mmHg 77%

    9 June, Tuesday

    Time Temperature Precipitation Wind Pressure Humidity
    00:00 +10°C° 0.1 mm 5 mps 736 mmHg 81%
    01:00 +10°C° 1.9 mm 5 mps 735 mmHg 85%
    02:00 +11°C° 1.9 mm 4 mps 735 mmHg 90%
    03:00 +10°C° 1.9 mm 4 mps 734 mmHg 95%
    04:00 +10°C° 2.5 mm 5 mps 734 mmHg 94%
    05:00 +10°C° 2.5 mm 5 mps 733 mmHg 94%
    06:00 +10°C° 2.5 mm 6 mps 733 mmHg 94%
    07:00 +10°C° 3.7 mm 5 mps 733 mmHg 94%
    08:00 +12°C° 3.7 mm 5 mps 732 mmHg 95%
    09:00 +12°C° 3.7 mm 4 mps 732 mmHg 95%
    10:00 +12°C° 4.2 mm 4 mps 732 mmHg 96%
    11:00 +12°C° 4.2 mm 3 mps 732 mmHg 96%
    12:00 +12°C° 4.2 mm 3 mps 732 mmHg 96%
    13:00 +13°C° 1 mm 3 mps 732 mmHg 92%
    14:00 +14°C° 1 mm 4 mps 733 mmHg 88%
    15:00 +17°C° 1 mm 4 mps 733 mmHg 84%
    16:00 +17°C° 0.6 mm 4 mps 734 mmHg 83%
    17:00 +17°C° 0.6 mm 3 mps 734 mmHg 81%
    18:00 +17°C° 0.6 mm 2 mps 735 mmHg 80%
    19:00 +15°C° 0 mm 2 mps 735 mmHg 81%
    20:00 +13°C° 0 mm 1 mps 736 mmHg 82%
    21:00 +12°C° 0 mm 1 mps 736 mmHg 83%
    22:00 +11°C° 0 mm 1 mps 737 mmHg 84%
    23:00 +11°C° 0 mm 1 mps 737 mmHg 85%
    Show more